TimePST,TemperatureF,Dew PointF,Humidity,Sea Level PressureIn,VisibilityMPH,Wind Direction,Wind SpeedMPH,Gust SpeedMPH,PrecipitationIn,Events,Conditions,WindDirDegrees,DateUTC
12:53 AM,45.0,37.9,76,30.18,10.0,NW,3.5,-,N/A,,Clear,310,2013-01-04 08:53:00
1:53 AM,46.0,35.1,66,30.19,9.0,Calm,Calm,-,N/A,,Clear,0,2013-01-04 09:53:00
2:53 AM,43.0,30.9,62,30.19,10.0,Calm,Calm,-,N/A,,Clear,0,2013-01-04 10:53:00
3:53 AM,42.1,28.9,60,30.18,10.0,WNW,4.6,-,N/A,,Clear,300,2013-01-04 11:53:00
4:53 AM,44.6,24.8,46,30.19,10.0,WNW,3.5,-,N/A,,Clear,290,2013-01-04 12:53:00
5:53 AM,45.0,23.0,42,30.20,10.0,Calm,Calm,-,N/A,,Clear,0,2013-01-04 13:53:00
6:53 AM,43.0,23.0,45,30.22,10.0,WNW,3.5,-,N/A,,Clear,290,2013-01-04 14:53:00
7:53 AM,46.0,23.0,40,30.25,10.0,WNW,3.5,-,N/A,,Clear,300,2013-01-04 15:53:00
8:53 AM,50.0,28.9,44,30.27,10.0,NW,3.5,-,N/A,,Clear,320,2013-01-04 16:53:00
9:53 AM,57.0,26.1,30,30.28,10.0,NNE,3.5,-,N/A,,Clear,20,2013-01-04 17:53:00
10:53 AM,61.0,24.1,24,30.26,10.0,Calm,Calm,-,N/A,,Clear,0,2013-01-04 18:53:00
11:53 AM,64.9,18.0,16,30.22,10.0,Calm,Calm,-,N/A,,Clear,0,2013-01-04 19:53:00
12:53 PM,64.9,12.9,13,30.20,10.0,SE,4.6,-,N/A,,Clear,130,2013-01-04 20:53:00
1:53 PM,64.0,19.0,18,30.18,10.0,SSW,6.9,-,N/A,,Clear,210,2013-01-04 21:53:00
2:53 PM,63.0,27.0,26,30.18,10.0,SSW,8.1,-,N/A,,Clear,200,2013-01-04 22:53:00
3:53 PM,62.1,33.1,34,30.18,10.0,South,5.8,-,N/A,,Clear,190,2013-01-04 23:53:00
4:53 PM,59.0,37.9,46,30.18,10.0,Calm,Calm,-,N/A,,Clear,0,2013-01-05 00:53:00
5:53 PM,57.0,39.0,51,30.19,10.0,Calm,Calm,-,N/A,,Clear,0,2013-01-05 01:53:00
6:53 PM,52.0,39.0,61,30.20,10.0,Calm,Calm,-,N/A,,Clear,0,2013-01-05 02:53:00
7:53 PM,53.1,37.9,57,30.22,10.0,NW,3.5,-,N/A,,Clear,310,2013-01-05 03:53:00
8:53 PM,50.0,36.0,59,30.23,10.0,Calm,Calm,-,N/A,,Clear,0,2013-01-05 04:53:00
9:53 PM,48.9,36.0,61,30.24,10.0,Calm,Calm,-,N/A,,Clear,0,2013-01-05 05:53:00
10:53 PM,46.9,37.0,68,30.25,9.0,Calm,Calm,-,N/A,,Clear,0,2013-01-05 06:53:00
11:53 PM,44.1,36.0,73,30.25,7.0,Calm,Calm,-,N/A,,Clear,0,2013-01-05 07:53:00